Regional Weather Roundup
Issued by NWS Northern Indiana

Home | Current Version | Previous Version | Text Only | Print | Product List | Glossary Off
Versions: 1 2 3 4 5 6 7 8 9 10 11 12 13 14 15 16 17 18 19 20 21 22 23 24 25 26 27 28 29 30 31 32 33 34 35 36 37 38 39 40 41 42 43 44 45 46 47 48 49 50

000
ASUS43 KIWX 241500
RWRIWX

KIWX WEATHER ROUNDUP
NATIONAL WEATHER SERVICE NORTHERN INDIANA
1000 AM EST SAT FEB 24 2018

NOTE: "FAIR" INDICATES FEW OR NO CLOUDS BELOW 12,000 FEET WITH NO
SIGNIFICANT WEATHER AND/OR OBSTRUCTIONS TO VISIBILITY.

* THESE STATIONS ARE NOT UNDER NWS QUALITY CONTROL. THEY ALSO MAY NOT
  REPORT WEATHER SUCH AS PRECIPITATION OR FOG.

INZ001>027-241600-
NORTHERN INDIANA

CITY           SKY/WX    TMP DP  RH WIND       PRES   REMARKS
GARY*          CLOUDY    37  32  81 E12       30.17S
VALPARAISO     CLOUDY    37  34  87 E10       30.16S
SOUTH BEND     CLOUDY    36  31  82 E9        30.18S
ELKHART*       CLOUDY    37  32  81 E9        30.18S
GOSHEN         CLOUDY    38  33  82 E13       30.16F
MONTICELLO*    RAIN      37  36  95 E8        30.13S
WARSAW*        LGT RAIN  36  34  93 W9        30.16F
AUBURN*        DRIZZLE   36  36 100 E8        30.20R
FORT WAYNE     LGT RAIN  38  36  92 E12       30.17F FOG
PERU/GRISSOM   LGT RAIN  39  39 100 E12       30.12F

$$
INZ028>050-241600-
CENTRAL INDIANA

CITY           SKY/WX    TMP DP  RH WIND       PRES   REMARKS
LAFAYETTE      CLOUDY    39  39 100 E12       30.12F FOG
KOKOMO*        LGT RAIN  39  38  96 E14       30.13F FOG
MUNCIE*        LGT RAIN  43  41  93 E7        30.15R FOG
INDIANAPOLIS   HVY RAIN  43  42  97 E10       30.10F FOG

$$
MIZ043>046-050>051-056>058-064>065-071>073-077>080-241600-
SOUTHWEST LOWER MICHIGAN

CITY           SKY/WX    TMP DP  RH WIND       PRES   REMARKS
BATTLE CREEK   CLOUDY    36  29  75 E8        30.19S
BENTON HARBOR  CLOUDY    36  30  79 E8        30.18F
COLDWATER*     CLOUDY    36  33  88 E10       30.18F
HILLSDALE*     CLOUDY    34  32  93 E9        30.18R WCI  26
HOLLAND        CLOUDY    35  28  75 E9        30.20F WCI  28
GRAND RAPIDS   CLOUDY    35  29  78 E12       30.21S WCI  27
KALAMAZOO      CLOUDY    37  30  75 E7        30.19F
THREE RIVERS*  CLOUDY    37  32  82 E6        30.19S

$$
OHZ001>008-015>018-024>025-241600-
NORTHWEST OHIO

CITY           SKY/WX    TMP DP  RH WIND       PRES   REMARKS
DEFIANCE       LGT RAIN  38  34  85 E9        30.19F
FINDLAY        LGT RAIN  40  35  83 NE10      30.17F
TOLEDO EXPRESS CLOUDY    39  35  86 E10       30.21R
TOLEDO METCALF CLOUDY    38  33  82 E10       30.24R
LIMA           LGT RAIN  40  39  97 NE9       30.15F

$$
AND FOR LAKE MICHIGAN COASTAL AND OPEN LAKE BUOY OBSERVATIONS

STATION/POSITION TEMP    WIND        PRES    VSBY  WAVE
                 AIR SEA DIR/SP/G                  HT/PER
                 (F)     (DEG/KT/KT) (MB)    (MI)  (FT/S)
CALUMET HARBOR    34      30/  9/ 14 1021.4
MICHIGAN CITY     35      60/  8/ 10   N/A
BURNS HARBOR      34      50/  9/ 10 1022.0F
SAINT JOSEPH      35      60/  3/  5 1022.4

$$
&&




USA.gov is the U.S. government's official web portal to all federal, state and local government web resources and services.